Starlink 5887

operational
NORAD ID: 56349 Int'l Des: 2023-058 Owner: SPXS Country: US Constellation: starlink
LEOCIRCULARRETROGRADESSO

Starlink 5887について

説明を読み込み中...

リアルタイム位置

3D地球を読み込み中...

次回通過

高度履歴

Altitude vs Time

uPlot chart will show altitude changes over time

軌道要素

1 56349U 23058AJ 25351.24474111 -.00000341 00000-0 -22019-4 0 9993
2 56349 97.6031 349.5246 0000854 171.4333 188.6906 15.01259949145763
Epoch: Dec 17, 2025 • Age: 14 hours

現在のステータス

高度 591.1 km
速度 7.56 km/s
衛星直下点 -79.73°S, 98.72°E
打ち上げ日 Apr 27, 2023
運用期間 2.6 years
タイプ internet

技術仕様

分類 Payload
質量 300.00 kg
乾燥質量 260.00 kg
総質量 300.00 kg
長さ 0.20 m
直径 2.80 m
スパン 9.00 m
形状 Box + pan
製造者 SPXS
バスタイプ Starlink
フェーズステータス In Orbit
所有者/国 SPXS/US

大規模コンステレーション

Loading constellations...